Retour au catalogue

COSMOS 1486

ActifMilitaireLEO
NORAD 14240·PAYLOAD·🇷🇺 Russia

Lancé Aug 3, 1983 depuis Plesetsk Cosmodrome

Loading…

Prochains Passages (prochaines 24 heures)

TLE

FraisSource: Space-Track

Époque: Sep 14, 2026, 10:49 UTC

1 14240U 83079A   26257.45089660  .00000062  00000-0  30796-4 0  9995
2 14240  74.0545 247.6529 0012844 146.6943  14.9907 14.34889097254559

Suivez COSMOS 1486 en temps réel avec AllMySat

Download on the App Store